Time,TemperatureF,DewpointF,PressureIn,WindDirection,WindDirectionDegrees,WindSpeedMPH,WindSpeedGustMPH,Humidity,HourlyPrecipIn,Conditions,Clouds,dailyrainin,SoftwareType,DateUTC
2013-07-04 00:00:00,71.0,69.8,30.10,SSE,148,0.0,1.0,96,0.00,,,0.00,Wunderground v.1.15,2013-07-04 04:00:00,
2013-07-04 00:01:00,71.0,69.8,30.10,SSW,198,0.0,1.0,96,0.00,,,0.00,Wunderground v.1.15,2013-07-04 04:01:00,
2013-07-04 00:02:00,71.0,69.8,30.10,SSW,198,0.0,1.0,96,0.00,,,0.00,Wunderground v.1.15,2013-07-04 04:02:00,
2013-07-04 00:03:00,71.0,69.8,30.10,SSE,162,0.0,1.0,96,0.00,,,0.00,Wunderground v.1.15,2013-07-04 04:03:00,
2013-07-04 00:04:00,71.0,69.8,30.10,SSE,153,0.0,1.0,96,0.00,,,0.00,Wunderground v.1.15,2013-07-04 04:04:00,
2013-07-04 00:07:00,71.0,69.5,30.10,SW,214,0.0,3.0,95,0.00,,,0.00,Wunderground v.1.15,2013-07-04 04:07:00,
2013-07-04 00:13:00,71.0,69.5,30.10,SSW,193,0.0,3.0,95,0.00,,,0.00,Wunderground v.1.15,2013-07-04 04:13:00,
2013-07-04 00:18:00,71.0,69.5,30.11,WSW,246,1.0,3.0,95,0.00,,,0.00,Wunderground v.1.15,2013-07-04 04:18:00,
2013-07-04 00:24:00,70.9,69.4,30.11,SSE,153,0.0,1.0,95,0.00,,,0.00,Wunderground v.1.15,2013-07-04 04:24:00,
2013-07-04 00:30:00,70.9,69.4,30.11,SE,141,0.0,1.0,95,0.00,,,0.00,Wunderground v.1.15,2013-07-04 04:30:00,
2013-07-04 00:35:00,70.8,69.3,30.11,South,169,0.0,2.0,95,0.00,,,0.00,Wunderground v.1.15,2013-07-04 04:35:00,
2013-07-04 00:41:00,70.7,68.9,30.11,SSW,200,1.0,1.0,94,0.00,,,0.00,Wunderground v.1.15,2013-07-04 04:41:00,
2013-07-04 00:47:00,70.7,68.9,30.11,SE,143,1.0,2.0,94,0.00,,,0.00,Wunderground v.1.15,2013-07-04 04:47:00,
2013-07-04 00:52:00,70.6,68.8,30.11,SSE,148,1.0,2.0,94,0.00,,,0.00,Wunderground v.1.15,2013-07-04 04:52:00,
2013-07-04 00:58:00,70.6,68.8,30.11,SW,226,2.0,4.0,94,0.00,,,0.00,Wunderground v.1.15,2013-07-04 04:58:00,
2013-07-04 01:04:00,70.6,68.8,30.11,SSW,203,1.0,2.0,94,0.00,,,0.00,Wunderground v.1.15,2013-07-04 05:04:00,
2013-07-04 01:10:00,70.5,68.7,30.11,SSW,207,1.0,1.0,94,0.00,,,0.00,Wunderground v.1.15,2013-07-04 05:10:00,
2013-07-04 01:15:00,70.4,68.6,30.11,SSW,194,1.0,2.0,94,0.00,,,0.00,Wunderground v.1.15,2013-07-04 05:15:00,
2013-07-04 01:21:00,70.3,68.5,30.11,South,169,1.0,4.0,94,0.00,,,0.00,Wunderground v.1.15,2013-07-04 05:21:00,
2013-07-04 01:27:00,70.1,68.3,30.11,South,169,1.0,4.0,94,0.00,,,0.00,Wunderground v.1.15,2013-07-04 05:27:00,
2013-07-04 01:33:00,70.1,68.3,30.11,SSE,155,1.0,3.0,94,0.00,,,0.00,Wunderground v.1.15,2013-07-04 05:33:00,
2013-07-04 01:38:00,69.9,68.1,30.11,West,267,1.0,3.0,94,0.00,,,0.00,Wunderground v.1.15,2013-07-04 05:38:00,
2013-07-04 01:44:00,69.8,68.0,30.11,SSW,198,1.0,3.0,94,0.00,,,0.00,Wunderground v.1.15,2013-07-04 05:44:00,
2013-07-04 01:50:00,69.8,68.0,30.11,SSW,204,1.0,3.0,94,0.00,,,0.00,Wunderground v.1.15,2013-07-04 05:50:00,
2013-07-04 01:55:00,69.7,67.6,30.11,SSE,150,1.0,3.0,93,0.00,,,0.00,Wunderground v.1.15,2013-07-04 05:55:00,
2013-07-04 02:00:00,69.7,67.6,30.11,SE,136,1.0,1.0,93,0.00,,,0.00,Wunderground v.1.15,2013-07-04 06:00:00,
2013-07-04 02:06:00,69.6,67.5,30.11,SSE,158,1.0,4.0,93,0.00,,,0.00,Wunderground v.1.15,2013-07-04 06:06:00,
2013-07-04 02:12:00,69.6,67.5,30.11,South,184,1.0,2.0,93,0.00,,,0.00,Wunderground v.1.15,2013-07-04 06:12:00,
2013-07-04 02:18:00,69.4,67.0,30.10,South,181,1.0,3.0,92,0.00,,,0.00,Wunderground v.1.15,2013-07-04 06:18:00,
2013-07-04 02:23:00,69.4,67.0,30.10,SSE,152,1.0,1.0,92,0.00,,,0.00,Wunderground v.1.15,2013-07-04 06:23:00,
2013-07-04 02:27:00,69.3,67.2,30.10,South,188,1.0,1.0,93,0.00,,,0.00,Wunderground v.1.15,2013-07-04 06:27:00,
2013-07-04 02:32:00,69.2,67.1,30.11,SSE,150,1.0,1.0,93,0.00,,,0.00,Wunderground v.1.15,2013-07-04 06:32:00,
2013-07-04 02:38:00,69.2,67.1,30.11,SSE,162,0.0,1.0,93,0.00,,,0.00,Wunderground v.1.15,2013-07-04 06:38:00,
2013-07-04 02:44:00,69.1,67.0,30.11,SSE,158,0.0,0.0,93,0.00,,,0.00,Wunderground v.1.15,2013-07-04 06:44:00,
2013-07-04 02:49:00,69.0,66.9,30.11,SE,142,0.0,1.0,93,0.00,,,0.00,Wunderground v.1.15,2013-07-04 06:49:00,
2013-07-04 02:55:00,68.9,66.8,30.11,SSE,162,0.0,0.0,93,0.00,,,0.00,Wunderground v.1.15,2013-07-04 06:55:00,
2013-07-04 03:00:00,68.8,66.7,30.11,SSE,156,0.0,0.0,93,0.00,,,0.00,Wunderground v.1.15,2013-07-04 07:00:00,
2013-07-04 03:06:00,68.7,66.3,30.11,South,169,0.0,0.0,92,0.00,,,0.00,Wunderground v.1.15,2013-07-04 07:06:00,
2013-07-04 03:12:00,68.6,66.2,30.11,SSE,150,0.0,0.0,92,0.00,,,0.00,Wunderground v.1.15,2013-07-04 07:12:00,
2013-07-04 03:17:00,68.6,66.2,30.11,SE,132,0.0,0.0,92,0.00,,,0.00,Wunderground v.1.15,2013-07-04 07:17:00,
2013-07-04 03:23:00,68.6,66.2,30.11,South,176,0.0,1.0,92,0.00,,,0.00,Wunderground v.1.15,2013-07-04 07:23:00,
2013-07-04 03:29:00,68.5,66.1,30.11,SSE,155,0.0,1.0,92,0.00,,,0.00,Wunderground v.1.15,2013-07-04 07:29:00,
2013-07-04 03:35:00,68.4,66.3,30.11,SSE,155,0.0,0.0,93,0.00,,,0.00,Wunderground v.1.15,2013-07-04 07:35:00,
2013-07-04 03:40:00,68.4,66.3,30.11,SSE,150,0.0,0.0,93,0.00,,,0.00,Wunderground v.1.15,2013-07-04 07:40:00,
2013-07-04 03:46:00,68.3,66.2,30.12,SSE,152,0.0,0.0,93,0.00,,,0.00,Wunderground v.1.15,2013-07-04 07:46:00,
2013-07-04 03:52:00,68.2,66.1,30.12,SSE,155,0.0,0.0,93,0.00,,,0.00,Wunderground v.1.15,2013-07-04 07:52:00,
2013-07-04 03:58:00,68.1,66.0,30.12,SSE,150,0.0,0.0,93,0.00,,,0.00,Wunderground v.1.15,2013-07-04 07:58:00,
2013-07-04 04:03:00,68.1,66.0,30.12,SE,143,0.0,1.0,93,0.00,,,0.00,Wunderground v.1.15,2013-07-04 08:03:00,
2013-07-04 04:09:00,68.0,66.2,30.11,SSE,153,0.0,1.0,94,0.00,,,0.00,Wunderground v.1.15,2013-07-04 08:09:00,
2013-07-04 04:14:00,68.0,65.9,30.12,SE,141,0.0,0.0,93,0.00,,,0.00,Wunderground v.1.15,2013-07-04 08:14:00,
2013-07-04 04:20:00,68.0,65.9,30.12,SSE,149,0.0,0.0,93,0.00,,,0.00,Wunderground v.1.15,2013-07-04 08:20:00,
2013-07-04 04:25:00,67.9,65.8,30.12,SE,124,0.0,0.0,93,0.00,,,0.00,Wunderground v.1.15,2013-07-04 08:25:00,
2013-07-04 04:31:00,67.9,65.8,30.12,SSE,150,0.0,0.0,93,0.00,,,0.00,Wunderground v.1.15,2013-07-04 08:31:00,
2013-07-04 04:37:00,67.9,65.8,30.12,SE,141,0.0,1.0,93,0.00,,,0.00,Wunderground v.1.15,2013-07-04 08:37:00,
2013-07-04 04:43:00,67.9,65.8,30.12,SE,139,0.0,0.0,93,0.00,,,0.00,Wunderground v.1.15,2013-07-04 08:43:00,
2013-07-04 04:49:00,67.8,65.4,30.12,SE,124,0.0,0.0,92,0.00,,,0.00,Wunderground v.1.15,2013-07-04 08:49:00,
2013-07-04 04:55:00,67.8,65.4,30.12,ESE,115,0.0,0.0,92,0.00,,,0.00,Wunderground v.1.15,2013-07-04 08:55:00,
2013-07-04 05:00:00,67.8,65.4,30.12,ESE,120,0.0,0.0,92,0.00,,,0.00,Wunderground v.1.15,2013-07-04 09:00:00,
2013-07-04 05:06:00,67.7,65.3,30.12,ESE,123,0.0,0.0,92,0.00,,,0.00,Wunderground v.1.15,2013-07-04 09:06:00,
2013-07-04 05:12:00,67.7,65.3,30.12,SE,132,0.0,0.0,92,0.00,,,0.00,Wunderground v.1.15,2013-07-04 09:12:00,
2013-07-04 05:17:00,67.6,65.2,30.11,ESE,108,0.0,1.0,92,0.00,,,0.00,Wunderground v.1.15,2013-07-04 09:17:00,
2013-07-04 05:23:00,67.6,65.5,30.11,ESE,106,0.0,0.0,93,0.00,,,0.00,Wunderground v.1.15,2013-07-04 09:23:00,
2013-07-04 05:29:00,67.6,65.5,30.11,ESE,113,0.0,3.0,93,0.00,,,0.00,Wunderground v.1.15,2013-07-04 09:29:00,
2013-07-04 05:34:00,67.7,65.6,30.12,SE,140,0.0,0.0,93,0.00,,,0.00,Wunderground v.1.15,2013-07-04 09:34:00,
2013-07-04 05:40:00,67.7,65.3,30.12,SSE,149,0.0,0.0,92,0.00,,,0.00,Wunderground v.1.15,2013-07-04 09:40:00,
2013-07-04 05:46:00,67.7,65.3,30.12,SE,129,0.0,1.0,92,0.00,,,0.00,Wunderground v.1.15,2013-07-04 09:46:00,
2013-07-04 05:51:00,67.8,65.4,30.12,SE,143,0.0,1.0,92,0.00,,,0.00,Wunderground v.1.15,2013-07-04 09:51:00,
2013-07-04 05:57:00,67.7,65.6,30.12,ESE,112,0.0,1.0,93,0.00,,,0.00,Wunderground v.1.15,2013-07-04 09:57:00,
2013-07-04 06:02:00,67.7,65.6,30.12,SE,144,0.0,1.0,93,0.00,,,0.00,Wunderground v.1.15,2013-07-04 10:02:00,
2013-07-04 06:08:00,67.6,65.8,30.12,SSE,148,0.0,2.0,94,0.00,,,0.00,Wunderground v.1.15,2013-07-04 10:08:00,
2013-07-04 06:14:00,67.6,65.8,30.13,SE,138,1.0,3.0,94,0.00,,,0.00,Wunderground v.1.15,2013-07-04 10:14:00,
2013-07-04 06:20:00,67.6,65.8,30.13,SE,139,1.0,2.0,94,0.00,,,0.00,Wunderground v.1.15,2013-07-04 10:20:00,
2013-07-04 06:25:00,67.5,65.7,30.13,SSE,167,1.0,4.0,94,0.00,,,0.00,Wunderground v.1.15,2013-07-04 10:25:00,
2013-07-04 06:31:00,67.4,65.9,30.13,ESE,108,1.0,1.0,95,0.00,,,0.00,Wunderground v.1.15,2013-07-04 10:31:00,
2013-07-04 06:37:00,67.4,65.9,30.13,SSE,155,1.0,2.0,95,0.00,,,0.00,Wunderground v.1.15,2013-07-04 10:37:00,
2013-07-04 06:42:00,67.4,65.9,30.13,ESE,110,1.0,3.0,95,0.00,,,0.00,Wunderground v.1.15,2013-07-04 10:42:00,
2013-07-04 06:48:00,67.4,65.9,30.13,ESE,120,1.0,4.0,95,0.00,,,0.00,Wunderground v.1.15,2013-07-04 10:48:00,
2013-07-04 06:54:00,67.4,65.9,30.13,SE,125,2.0,3.0,95,0.00,,,0.00,Wunderground v.1.15,2013-07-04 10:54:00,
2013-07-04 06:59:00,67.4,65.9,30.13,SSE,153,2.0,3.0,95,0.00,,,0.00,Wunderground v.1.15,2013-07-04 10:59:00,
2013-07-04 07:05:00,67.5,66.0,30.13,SE,146,2.0,4.0,95,0.00,,,0.00,Wunderground v.1.15,2013-07-04 11:05:00,
2013-07-04 07:10:00,67.5,66.0,30.13,ESE,114,2.0,2.0,95,0.00,,,0.00,Wunderground v.1.15,2013-07-04 11:10:00,
2013-07-04 07:16:00,67.5,66.0,30.13,ESE,105,2.0,3.0,95,0.00,,,0.00,Wunderground v.1.15,2013-07-04 11:16:00,
2013-07-04 07:22:00,67.5,66.0,30.12,SSE,155,1.0,2.0,95,0.00,,,0.00,Wunderground v.1.15,2013-07-04 11:22:00,
2013-07-04 07:27:00,67.5,66.0,30.13,SSE,150,0.0,2.0,95,0.00,,,0.00,Wunderground v.1.15,2013-07-04 11:27:00,
2013-07-04 07:33:00,67.5,66.0,30.13,SSW,203,0.0,0.0,95,0.00,,,0.00,Wunderground v.1.15,2013-07-04 11:33:00,
2013-07-04 07:39:00,67.5,66.0,30.13,SSE,150,0.0,2.0,95,0.00,,,0.00,Wunderground v.1.15,2013-07-04 11:39:00,
2013-07-04 07:44:00,67.4,66.2,30.13,SE,135,0.0,1.0,96,0.00,,,0.01,Wunderground v.1.15,2013-07-04 11:44:00,
2013-07-04 07:50:00,67.3,66.1,30.13,SE,135,0.0,0.0,96,0.00,,,0.01,Wunderground v.1.15,2013-07-04 11:50:00,
2013-07-04 07:56:00,67.2,66.0,30.13,SSE,150,0.0,0.0,96,0.04,,,0.02,Wunderground v.1.15,2013-07-04 11:56:00,
2013-07-04 08:01:00,67.1,65.9,30.14,SSE,153,0.0,0.0,96,0.04,,,0.02,Wunderground v.1.15,2013-07-04 12:01:00,
2013-07-04 08:07:00,67.1,65.9,30.14,SE,129,0.0,1.0,96,0.08,,,0.03,Wunderground v.1.15,2013-07-04 12:07:00,
2013-07-04 08:12:00,67.0,65.8,30.14,ESE,110,0.0,1.0,96,0.07,,,0.04,Wunderground v.1.15,2013-07-04 12:12:00,
2013-07-04 08:18:00,67.0,66.1,30.14,ESE,117,0.0,1.0,97,0.07,,,0.04,Wunderground v.1.15,2013-07-04 12:18:00,
2013-07-04 08:24:00,67.1,66.2,30.14,ESE,117,0.0,2.0,97,0.05,,,0.04,Wunderground v.1.15,2013-07-04 12:24:00,
2013-07-04 08:30:00,67.0,66.1,30.14,SE,124,1.0,2.0,97,0.04,,,0.05,Wunderground v.1.15,2013-07-04 12:30:00,
2013-07-04 08:35:00,67.0,66.1,30.14,ESE,119,1.0,2.0,97,0.04,,,0.05,Wunderground v.1.15,2013-07-04 12:35:00,
2013-07-04 08:41:00,67.1,66.2,30.14,SE,136,0.0,1.0,97,0.06,,,0.06,Wunderground v.1.15,2013-07-04 12:41:00,
2013-07-04 08:47:00,67.3,66.4,30.14,SE,126,0.0,1.0,97,0.06,,,0.06,Wunderground v.1.15,2013-07-04 12:47:00,
2013-07-04 08:53:00,67.5,66.6,30.14,SSE,150,0.0,1.0,97,0.04,,,0.06,Wunderground v.1.15,2013-07-04 12:53:00,
2013-07-04 08:59:00,67.6,66.7,30.15,SSE,162,0.0,2.0,97,0.00,,,0.07,Wunderground v.1.15,2013-07-04 12:59:00,
2013-07-04 09:05:00,67.8,66.9,30.15,SE,141,1.0,2.0,97,0.00,,,0.07,Wunderground v.1.15,2013-07-04 13:05:00,
2013-07-04 09:10:00,67.9,67.0,30.15,ESE,105,1.0,4.0,97,0.00,,,0.07,Wunderground v.1.15,2013-07-04 13:10:00,
2013-07-04 09:16:00,68.0,67.1,30.15,ESE,118,1.0,4.0,97,0.00,,,0.07,Wunderground v.1.15,2013-07-04 13:16:00,
2013-07-04 09:22:00,68.1,67.2,30.15,South,176,1.0,2.0,97,0.00,,,0.07,Wunderground v.1.15,2013-07-04 13:22:00,
2013-07-04 09:27:00,68.1,66.9,30.15,ESE,118,2.0,5.0,96,0.00,,,0.07,Wunderground v.1.15,2013-07-04 13:27:00,
2013-07-04 09:33:00,68.2,67.0,30.15,ESE,110,2.0,2.0,96,0.00,,,0.07,Wunderground v.1.15,2013-07-04 13:33:00,
2013-07-04 09:38:00,68.5,67.3,30.14,SE,129,2.0,4.0,96,0.00,,,0.07,Wunderground v.1.15,2013-07-04 13:38:00,
2013-07-04 09:44:00,68.8,67.6,30.14,SE,143,2.0,2.0,96,0.00,,,0.07,Wunderground v.1.15,2013-07-04 13:44:00,
2013-07-04 09:50:00,69.1,67.9,30.14,SE,139,2.0,4.0,96,0.00,,,0.07,Wunderground v.1.15,2013-07-04 13:50:00,
2013-07-04 09:56:00,69.2,68.0,30.14,ESE,121,2.0,4.0,96,0.00,,,0.07,Wunderground v.1.15,2013-07-04 13:56:00,
2013-07-04 10:01:00,69.4,67.9,30.14,SE,136,1.0,1.0,95,0.00,,,0.07,Wunderground v.1.15,2013-07-04 14:01:00,
2013-07-04 10:06:00,69.6,68.1,30.14,ESE,110,1.0,2.0,95,0.00,,,0.07,Wunderground v.1.15,2013-07-04 14:06:00,
2013-07-04 10:12:00,69.7,68.2,30.14,SE,125,1.0,1.0,95,0.00,,,0.07,Wunderground v.1.15,2013-07-04 14:12:00,
2013-07-04 10:17:00,69.7,68.2,30.14,SSE,162,0.0,1.0,95,0.00,,,0.07,Wunderground v.1.15,2013-07-04 14:17:00,
2013-07-04 10:23:00,69.4,67.9,30.14,SE,127,1.0,2.0,95,0.00,,,0.07,Wunderground v.1.15,2013-07-04 14:23:00,
2013-07-04 10:29:00,69.4,67.9,30.14,ESE,117,1.0,2.0,95,0.00,,,0.07,Wunderground v.1.15,2013-07-04 14:29:00,
2013-07-04 10:34:00,69.6,68.4,30.14,SSE,159,1.0,2.0,96,0.00,,,0.07,Wunderground v.1.15,2013-07-04 14:34:00,
2013-07-04 10:40:00,69.8,68.3,30.14,SE,138,1.0,1.0,95,0.00,,,0.07,Wunderground v.1.15,2013-07-04 14:40:00,
2013-07-04 10:46:00,69.9,68.4,30.14,ESE,113,1.0,3.0,95,0.00,,,0.07,Wunderground v.1.15,2013-07-04 14:46:00,
2013-07-04 10:52:00,69.9,68.4,30.14,SSE,160,1.0,2.0,95,0.00,,,0.07,Wunderground v.1.15,2013-07-04 14:52:00,
2013-07-04 10:57:00,69.9,68.4,30.14,ESE,107,1.0,3.0,95,0.00,,,0.08,Wunderground v.1.15,2013-07-04 14:57:00,
2013-07-04 11:03:00,70.0,68.5,30.14,ESE,105,2.0,2.0,95,0.00,,,0.08,Wunderground v.1.15,2013-07-04 15:03:00,
2013-07-04 11:09:00,69.9,68.4,30.14,ESE,108,2.0,3.0,95,0.00,,,0.08,Wunderground v.1.15,2013-07-04 15:09:00,
2013-07-04 11:14:00,69.8,68.3,30.14,ENE,72,2.0,5.0,95,0.00,,,0.08,Wunderground v.1.15,2013-07-04 15:14:00,
2013-07-04 11:20:00,69.8,68.3,30.14,ESE,110,3.0,3.0,95,0.00,,,0.08,Wunderground v.1.15,2013-07-04 15:20:00,
2013-07-04 11:26:00,69.8,68.3,30.14,ESE,104,3.0,7.0,95,0.00,,,0.09,Wunderground v.1.15,2013-07-04 15:26:00,
2013-07-04 11:31:00,69.9,68.4,30.14,SE,129,2.0,3.0,95,0.00,,,0.09,Wunderground v.1.15,2013-07-04 15:31:00,
2013-07-04 11:37:00,69.9,68.4,30.14,SE,131,3.0,5.0,95,0.05,,,0.10,Wunderground v.1.15,2013-07-04 15:37:00,
2013-07-04 11:43:00,70.0,68.5,30.14,SSE,159,3.0,4.0,95,0.05,,,0.10,Wunderground v.1.15,2013-07-04 15:43:00,
2013-07-04 11:48:00,70.1,68.6,30.13,ENE,71,1.0,4.0,95,0.04,,,0.10,Wunderground v.1.15,2013-07-04 15:48:00,
2013-07-04 11:54:00,70.1,68.6,30.13,SSE,155,2.0,2.0,95,0.00,,,0.10,Wunderground v.1.15,2013-07-04 15:54:00,
2013-07-04 12:00:00,70.2,68.4,30.14,ESE,108,2.0,3.0,94,0.00,,,0.11,Wunderground v.1.15,2013-07-04 16:00:00,
2013-07-04 12:06:00,70.2,68.4,30.14,SSE,163,3.0,4.0,94,0.00,,,0.11,Wunderground v.1.15,2013-07-04 16:06:00,
2013-07-04 12:12:00,70.5,69.0,30.14,ESE,103,3.0,4.0,95,0.05,,,0.12,Wunderground v.1.15,2013-07-04 16:12:00,
2013-07-04 12:18:00,70.5,68.7,30.14,East,84,2.0,5.0,94,0.09,,,0.13,Wunderground v.1.15,2013-07-04 16:18:00,
2013-07-04 12:23:00,70.3,68.8,30.14,ESE,120,3.0,3.0,95,0.07,,,0.13,Wunderground v.1.15,2013-07-04 16:23:00,
2013-07-04 12:28:00,70.1,68.6,30.14,SE,124,2.0,3.0,95,0.04,,,0.13,Wunderground v.1.15,2013-07-04 16:28:00,
2013-07-04 12:34:00,70.1,68.6,30.14,ESE,108,3.0,7.0,95,0.00,,,0.14,Wunderground v.1.15,2013-07-04 16:34:00,
2013-07-04 12:40:00,69.9,68.1,30.14,SSE,165,3.0,3.0,94,0.10,,,0.15,Wunderground v.1.15,2013-07-04 16:40:00,
2013-07-04 12:45:00,69.7,68.2,30.14,SE,145,3.0,4.0,95,0.26,,,0.18,Wunderground v.1.15,2013-07-04 16:45:00,
2013-07-04 12:51:00,69.9,68.7,30.14,SE,144,2.0,3.0,96,0.15,,,0.19,Wunderground v.1.15,2013-07-04 16:51:00,
2013-07-04 12:56:00,70.1,68.6,30.14,ESE,110,1.0,3.0,95,0.15,,,0.20,Wunderground v.1.15,2013-07-04 16:56:00,
2013-07-04 13:02:00,70.0,68.8,30.14,East,101,1.0,2.0,96,0.23,,,0.22,Wunderground v.1.15,2013-07-04 17:02:00,
2013-07-04 13:07:00,69.7,68.2,30.14,SE,135,2.0,4.0,95,0.64,,,0.30,Wunderground v.1.15,2013-07-04 17:07:00,
2013-07-04 13:13:00,69.4,68.2,30.13,SSE,153,2.0,3.0,96,0.32,,,0.35,Wunderground v.1.15,2013-07-04 17:13:00,
2013-07-04 13:19:00,69.3,68.1,30.13,SSE,160,1.0,3.0,96,0.23,,,0.37,Wunderground v.1.15,2013-07-04 17:19:00,
2013-07-04 13:25:00,69.2,68.0,30.13,ESE,102,1.0,1.0,96,0.12,,,0.38,Wunderground v.1.15,2013-07-04 17:25:00,
2013-07-04 13:31:00,69.4,68.5,30.13,ESE,106,0.0,1.0,97,0.14,,,0.40,Wunderground v.1.15,2013-07-04 17:31:00,
2013-07-04 13:37:00,69.4,68.2,30.13,SE,129,0.0,1.0,96,0.09,,,0.40,Wunderground v.1.15,2013-07-04 17:37:00,
2013-07-04 13:42:00,69.5,68.3,30.13,SSE,150,0.0,0.0,96,0.05,,,0.40,Wunderground v.1.15,2013-07-04 17:42:00,
2013-07-04 13:48:00,69.9,68.7,30.13,SSW,207,0.0,0.0,96,0.00,,,0.40,Wunderground v.1.15,2013-07-04 17:48:00,
2013-07-04 13:53:00,70.3,69.1,30.13,SW,224,0.0,0.0,96,0.00,,,0.40,Wunderground v.1.15,2013-07-04 17:53:00,
2013-07-04 13:59:00,70.9,69.4,30.13,SW,214,0.0,0.0,95,0.00,,,0.40,Wunderground v.1.15,2013-07-04 17:59:00,
2013-07-04 14:05:00,71.3,69.5,30.13,SSW,211,0.0,0.0,94,0.00,,,0.40,Wunderground v.1.15,2013-07-04 18:05:00,
2013-07-04 14:11:00,71.5,69.1,30.13,SE,141,0.0,0.0,92,0.00,,,0.40,Wunderground v.1.15,2013-07-04 18:11:00,
2013-07-04 14:16:00,71.5,69.4,30.13,ESE,106,0.0,2.0,93,0.00,,,0.40,Wunderground v.1.15,2013-07-04 18:16:00,
2013-07-04 14:22:00,71.5,69.4,30.13,SE,139,0.0,0.0,93,0.00,,,0.41,Wunderground v.1.15,2013-07-04 18:22:00,
2013-07-04 14:28:00,71.4,69.3,30.13,SSE,156,0.0,0.0,93,0.00,,,0.41,Wunderground v.1.15,2013-07-04 18:28:00,
2013-07-04 14:34:00,71.4,69.3,30.13,SSE,149,0.0,1.0,93,0.05,,,0.42,Wunderground v.1.15,2013-07-04 18:34:00,
2013-07-04 14:39:00,71.5,69.7,30.13,SSE,153,0.0,1.0,94,0.05,,,0.42,Wunderground v.1.15,2013-07-04 18:39:00,
2013-07-04 14:45:00,71.4,69.6,30.13,SE,124,0.0,0.0,94,0.05,,,0.42,Wunderground v.1.15,2013-07-04 18:45:00,
2013-07-04 14:51:00,71.4,69.6,30.12,SE,124,0.0,0.0,94,0.05,,,0.43,Wunderground v.1.15,2013-07-04 18:51:00,
2013-07-04 14:56:00,71.6,69.8,30.12,ESE,119,0.0,0.0,94,0.05,,,0.43,Wunderground v.1.15,2013-07-04 18:56:00,
2013-07-04 15:02:00,72.0,70.2,30.11,ESE,118,0.0,0.0,94,0.04,,,0.43,Wunderground v.1.15,2013-07-04 19:02:00,
2013-07-04 15:08:00,72.3,70.2,30.11,SE,139,0.0,0.0,93,0.00,,,0.43,Wunderground v.1.15,2013-07-04 19:08:00,
2013-07-04 15:13:00,72.1,69.6,30.11,ENE,69,0.0,0.0,92,0.00,,,0.43,Wunderground v.1.15,2013-07-04 19:13:00,
2013-07-04 15:19:00,71.9,69.8,30.11,East,82,0.0,1.0,93,0.00,,,0.43,Wunderground v.1.15,2013-07-04 19:19:00,
2013-07-04 15:24:00,71.7,69.9,30.11,ENE,72,0.0,1.0,94,0.00,,,0.43,Wunderground v.1.15,2013-07-04 19:24:00,
2013-07-04 15:30:00,71.7,69.9,30.11,East,101,0.0,0.0,94,0.00,,,0.43,Wunderground v.1.15,2013-07-04 19:30:00,
2013-07-04 15:36:00,71.9,70.1,30.11,East,90,0.0,1.0,94,0.00,,,0.43,Wunderground v.1.15,2013-07-04 19:36:00,
2013-07-04 15:41:00,72.0,70.5,30.10,ENE,65,0.0,1.0,95,0.00,,,0.43,Wunderground v.1.15,2013-07-04 19:41:00,
2013-07-04 15:47:00,72.3,70.8,30.10,ESE,106,0.0,1.0,95,0.00,,,0.43,Wunderground v.1.15,2013-07-04 19:47:00,
2013-07-04 15:53:00,72.7,71.2,30.10,SE,145,0.0,2.0,95,0.00,,,0.43,Wunderground v.1.15,2013-07-04 19:53:00,
2013-07-04 15:59:00,73.0,70.9,30.10,ENE,70,0.0,2.0,93,0.00,,,0.43,Wunderground v.1.15,2013-07-04 19:59:00,
2013-07-04 16:04:00,73.1,71.0,30.10,SE,129,0.0,0.0,93,0.00,,,0.43,Wunderground v.1.15,2013-07-04 20:04:00,
2013-07-04 16:10:00,73.1,71.0,30.10,ESE,119,0.0,0.0,93,0.00,,,0.43,Wunderground v.1.15,2013-07-04 20:10:00,
2013-07-04 16:16:00,73.1,71.0,30.09,East,97,1.0,1.0,93,0.00,,,0.43,Wunderground v.1.15,2013-07-04 20:16:00,
2013-07-04 16:22:00,73.2,71.4,30.09,East,86,1.0,2.0,94,0.00,,,0.43,Wunderground v.1.15,2013-07-04 20:22:00,
2013-07-04 16:27:00,73.4,71.3,30.09,ENE,68,1.0,3.0,93,0.00,,,0.43,Wunderground v.1.15,2013-07-04 20:27:00,
2013-07-04 16:33:00,73.8,71.3,30.09,ENE,69,1.0,1.0,92,0.00,,,0.43,Wunderground v.1.15,2013-07-04 20:33:00,
2013-07-04 16:39:00,74.0,71.5,30.09,ESE,110,0.0,2.0,92,0.00,,,0.43,Wunderground v.1.15,2013-07-04 20:39:00,
2013-07-04 16:45:00,74.1,71.3,30.09,ENE,77,1.0,2.0,91,0.00,,,0.43,Wunderground v.1.15,2013-07-04 20:45:00,
2013-07-04 16:51:00,74.3,71.5,30.08,ENE,68,1.0,2.0,91,0.00,,,0.43,Wunderground v.1.15,2013-07-04 20:51:00,
2013-07-04 16:57:00,74.3,71.8,30.08,ESE,107,2.0,2.0,92,0.00,,,0.43,Wunderground v.1.15,2013-07-04 20:57:00,
2013-07-04 17:02:00,74.5,71.7,30.08,ESE,118,1.0,1.0,91,0.00,,,0.43,Wunderground v.1.15,2013-07-04 21:02:00,
2013-07-04 17:07:00,74.5,71.4,30.08,SE,139,0.0,1.0,90,0.00,,,0.43,Wunderground v.1.15,2013-07-04 21:07:00,
2013-07-04 17:13:00,74.6,71.8,30.09,East,101,1.0,1.0,91,0.00,,,0.43,Wunderground v.1.15,2013-07-04 21:13:00,
2013-07-04 17:18:00,74.5,71.4,30.08,SE,134,0.0,1.0,90,0.00,,,0.43,Wunderground v.1.15,2013-07-04 21:18:00,
2013-07-04 17:20:00,74.4,71.6,30.08,SSE,150,0.0,0.0,91,0.00,,,0.43,Wunderground v.1.15,2013-07-04 21:20:00,
2013-07-04 17:26:00,74.2,71.1,30.09,East,80,0.0,1.0,90,0.00,,,0.43,Wunderground v.1.15,2013-07-04 21:26:00,
2013-07-04 17:31:00,74.0,71.5,30.09,East,94,0.0,1.0,92,0.00,,,0.43,Wunderground v.1.15,2013-07-04 21:31:00,
2013-07-04 17:37:00,73.9,71.4,30.09,South,174,0.0,3.0,92,0.00,,,0.44,Wunderground v.1.15,2013-07-04 21:37:00,
2013-07-04 17:43:00,73.9,71.4,30.09,SW,219,0.0,1.0,92,0.12,,,0.45,Wunderground v.1.15,2013-07-04 21:43:00,
2013-07-04 17:49:00,73.7,71.5,30.08,West,271,0.0,1.0,93,0.06,,,0.45,Wunderground v.1.15,2013-07-04 21:49:00,
2013-07-04 17:54:00,73.5,71.4,30.08,West,271,0.0,0.0,93,0.04,,,0.45,Wunderground v.1.15,2013-07-04 21:54:00,
2013-07-04 18:00:00,73.5,71.4,30.08,West,271,0.0,0.0,93,0.00,,,0.45,Wunderground v.1.15,2013-07-04 22:00:00,
2013-07-04 18:06:00,73.4,71.6,30.08,ENE,75,0.0,0.0,94,0.00,,,0.46,Wunderground v.1.15,2013-07-04 22:06:00,
2013-07-04 18:11:00,73.4,71.6,30.08,ENE,75,0.0,0.0,94,0.00,,,0.46,Wunderground v.1.15,2013-07-04 22:11:00,
2013-07-04 18:16:00,73.4,71.9,30.08,ENE,75,0.0,0.0,95,0.00,,,0.46,Wunderground v.1.15,2013-07-04 22:16:00,
2013-07-04 18:22:00,73.5,72.0,30.08,ENE,75,0.0,0.0,95,0.00,,,0.46,Wunderground v.1.15,2013-07-04 22:22:00,
2013-07-04 18:28:00,73.6,72.1,30.08,ENE,75,0.0,0.0,95,0.00,,,0.46,Wunderground v.1.15,2013-07-04 22:28:00,
2013-07-04 18:34:00,73.6,71.4,30.07,ENE,75,0.0,0.0,93,0.00,,,0.47,Wunderground v.1.15,2013-07-04 22:34:00,
2013-07-04 18:40:00,73.7,71.5,30.07,ENE,75,0.0,0.0,93,0.06,,,0.48,Wunderground v.1.15,2013-07-04 22:40:00,
2013-07-04 18:46:00,73.7,71.9,30.07,ENE,75,0.0,0.0,94,0.09,,,0.49,Wunderground v.1.15,2013-07-04 22:46:00,
2013-07-04 18:52:00,73.6,71.4,30.07,ENE,75,0.0,0.0,93,0.13,,,0.50,Wunderground v.1.15,2013-07-04 22:52:00,
2013-07-04 18:57:00,73.4,71.6,30.08,SE,132,0.0,0.0,94,0.15,,,0.51,Wunderground v.1.15,2013-07-04 22:57:00,
2013-07-04 19:03:00,73.3,71.8,30.08,SE,133,0.0,0.0,95,0.15,,,0.53,Wunderground v.1.15,2013-07-04 23:03:00,
2013-07-04 19:08:00,73.3,71.8,30.07,SE,132,0.0,0.0,95,0.10,,,0.54,Wunderground v.1.15,2013-07-04 23:08:00,
2013-07-04 19:14:00,73.1,71.6,30.07,SE,132,0.0,0.0,95,0.17,,,0.55,Wunderground v.1.15,2013-07-04 23:14:00,
2013-07-04 19:19:00,73.0,71.5,30.08,SE,133,0.0,0.0,95,0.12,,,0.56,Wunderground v.1.15,2013-07-04 23:19:00,
2013-07-04 19:25:00,72.9,71.7,30.08,SE,132,0.0,0.0,96,0.10,,,0.57,Wunderground v.1.15,2013-07-04 23:25:00,
2013-07-04 19:30:00,72.8,71.6,30.07,SE,133,0.0,0.0,96,0.08,,,0.58,Wunderground v.1.15,2013-07-04 23:30:00,
2013-07-04 19:36:00,72.6,71.4,30.06,ENE,67,0.0,4.0,96,0.11,,,0.59,Wunderground v.1.15,2013-07-04 23:36:00,
2013-07-04 19:42:00,71.7,70.2,30.07,ESE,110,2.0,2.0,95,0.09,,,0.60,Wunderground v.1.15,2013-07-04 23:42:00,
2013-07-04 19:48:00,71.2,69.7,30.07,SE,128,1.0,2.0,95,0.06,,,0.60,Wunderground v.1.15,2013-07-04 23:48:00,
2013-07-04 19:54:00,70.9,69.7,30.07,East,82,2.0,3.0,96,0.04,,,0.60,Wunderground v.1.15,2013-07-04 23:54:00,
2013-07-04 19:59:00,70.7,69.5,30.07,SSE,153,1.0,3.0,96,0.00,,,0.60,Wunderground v.1.15,2013-07-04 23:59:00,
2013-07-04 20:05:00,70.6,69.4,30.07,SSE,150,0.0,1.0,96,0.00,,,0.60,Wunderground v.1.15,2013-07-05 00:05:00,
2013-07-04 20:11:00,70.5,69.3,30.07,SE,143,0.0,0.0,96,0.00,,,0.60,Wunderground v.1.15,2013-07-05 00:11:00,
2013-07-04 20:17:00,70.5,69.3,30.06,ESE,122,0.0,1.0,96,0.00,,,0.60,Wunderground v.1.15,2013-07-05 00:17:00,
2013-07-04 20:22:00,70.4,69.2,30.06,SE,139,0.0,0.0,96,0.00,,,0.60,Wunderground v.1.15,2013-07-05 00:22:00,
2013-07-04 20:28:00,70.4,69.5,30.06,SE,141,0.0,0.0,97,0.00,,,0.60,Wunderground v.1.15,2013-07-05 00:28:00,
2013-07-04 20:34:00,70.3,69.4,30.06,SE,125,0.0,0.0,97,0.00,,,0.60,Wunderground v.1.15,2013-07-05 00:34:00,
2013-07-04 20:39:00,70.2,69.3,30.06,ESE,110,0.0,0.0,97,0.00,,,0.60,Wunderground v.1.15,2013-07-05 00:39:00,
2013-07-04 20:45:00,70.1,69.2,30.06,SE,131,0.0,0.0,97,0.00,,,0.61,Wunderground v.1.15,2013-07-05 00:45:00,
2013-07-04 20:51:00,70.1,69.2,30.06,SE,131,0.0,0.0,97,0.00,,,0.61,Wunderground v.1.15,2013-07-05 00:51:00,
2013-07-04 20:57:00,70.1,69.2,30.06,SE,131,0.0,0.0,97,0.00,,,0.61,Wunderground v.1.15,2013-07-05 00:57:00,
2013-07-04 21:02:00,70.1,69.2,30.06,SE,131,0.0,0.0,97,0.00,,,0.61,Wunderground v.1.15,2013-07-05 01:02:00,
2013-07-04 21:08:00,70.1,69.2,30.07,SE,131,0.0,0.0,97,0.00,,,0.61,Wunderground v.1.15,2013-07-05 01:08:00,
2013-07-04 21:14:00,70.1,69.2,30.09,WSW,249,0.0,0.0,97,0.63,,,0.66,Wunderground v.1.15,2013-07-05 01:14:00,
2013-07-04 21:20:00,70.1,69.5,30.09,WSW,256,0.0,0.0,98,0.34,,,0.70,Wunderground v.1.15,2013-07-05 01:20:00,
2013-07-04 21:26:00,70.0,69.4,30.09,West,274,0.0,1.0,98,0.77,,,0.74,Wunderground v.1.15,2013-07-05 01:26:00,
2013-07-04 21:31:00,70.0,69.4,30.08,West,260,1.0,1.0,98,0.27,,,0.77,Wunderground v.1.15,2013-07-05 01:31:00,
2013-07-04 21:37:00,69.7,68.8,30.09,WSW,253,2.0,5.0,97,0.31,,,0.83,Wunderground v.1.15,2013-07-05 01:37:00,
2013-07-04 21:43:00,68.9,67.4,30.10,WSW,242,4.0,9.0,95,0.38,,,0.86,Wunderground v.1.15,2013-07-05 01:43:00,
2013-07-04 21:49:00,67.8,66.3,30.08,WNW,285,4.0,9.0,95,0.65,,,0.99,Wunderground v.1.15,2013-07-05 01:49:00,
2013-07-04 21:55:00,67.1,65.9,30.09,West,259,3.0,6.0,96,0.14,,,1.00,Wunderground v.1.15,2013-07-05 01:55:00,
2013-07-04 22:00:00,66.9,65.7,30.09,WSW,246,3.0,3.0,96,0.10,,,1.01,Wunderground v.1.15,2013-07-05 02:00:00,
2013-07-04 22:06:00,66.6,65.7,30.09,WNW,290,2.0,3.0,97,0.08,,,1.02,Wunderground v.1.15,2013-07-05 02:06:00,
2013-07-04 22:12:00,66.4,65.2,30.09,WSW,248,1.0,3.0,96,0.17,,,1.04,Wunderground v.1.15,2013-07-05 02:12:00,
2013-07-04 22:18:00,66.2,65.3,30.09,SW,233,1.0,3.0,97,0.24,,,1.06,Wunderground v.1.15,2013-07-05 02:18:00,
2013-07-04 22:23:00,66.1,65.2,30.10,WSW,243,0.0,1.0,97,0.18,,,1.08,Wunderground v.1.15,2013-07-05 02:23:00,
2013-07-04 22:29:00,66.0,65.1,30.10,South,173,0.0,1.0,97,0.12,,,1.09,Wunderground v.1.15,2013-07-05 02:29:00,
2013-07-04 22:35:00,66.0,65.1,30.10,SSE,158,0.0,0.0,97,0.07,,,1.09,Wunderground v.1.15,2013-07-05 02:35:00,
2013-07-04 22:40:00,65.9,65.0,30.11,SSE,150,0.0,0.0,97,0.04,,,1.09,Wunderground v.1.15,2013-07-05 02:40:00,
2013-07-04 22:46:00,65.8,64.9,30.11,ESE,111,0.0,0.0,97,0.04,,,1.10,Wunderground v.1.15,2013-07-05 02:46:00,
2013-07-04 22:52:00,65.9,65.3,30.10,SE,129,0.0,0.0,98,0.04,,,1.10,Wunderground v.1.15,2013-07-05 02:52:00,
2013-07-04 22:57:00,65.9,65.3,30.10,ESE,119,0.0,0.0,98,0.04,,,1.10,Wunderground v.1.15,2013-07-05 02:57:00,
2013-07-04 23:03:00,65.9,65.3,30.10,ESE,106,0.0,2.0,98,0.00,,,1.10,Wunderground v.1.15,2013-07-05 03:03:00,
2013-07-04 23:08:00,65.9,65.3,30.09,East,89,1.0,2.0,98,0.00,,,1.10,Wunderground v.1.15,2013-07-05 03:08:00,
2013-07-04 23:14:00,66.0,65.4,30.10,ESE,103,1.0,2.0,98,0.00,,,1.10,Wunderground v.1.15,2013-07-05 03:14:00,
2013-07-04 23:20:00,65.9,65.3,30.10,ESE,121,1.0,1.0,98,0.00,,,1.10,Wunderground v.1.15,2013-07-05 03:20:00,
2013-07-04 23:25:00,65.9,65.3,30.10,East,91,1.0,2.0,98,0.00,,,1.10,Wunderground v.1.15,2013-07-05 03:25:00,
2013-07-04 23:31:00,65.9,65.3,30.10,ESE,122,1.0,1.0,98,0.00,,,1.10,Wunderground v.1.15,2013-07-05 03:31:00,
2013-07-04 23:37:00,65.9,65.3,30.10,ESE,113,1.0,1.0,98,0.00,,,1.10,Wunderground v.1.15,2013-07-05 03:37:00,
2013-07-04 23:42:00,65.9,65.3,30.11,SE,124,1.0,2.0,98,0.00,,,1.10,Wunderground v.1.15,2013-07-05 03:42:00,
2013-07-04 23:48:00,65.9,65.3,30.10,ESE,118,1.0,2.0,98,0.00,,,1.10,Wunderground v.1.15,2013-07-05 03:48:00,
2013-07-04 23:53:00,65.8,65.2,30.10,SSE,156,1.0,1.0,98,0.00,,,1.10,Wunderground v.1.15,2013-07-05 03:53:00,
2013-07-04 23:59:00,65.9,65.3,30.10,SSE,162,0.0,1.0,98,0.00,,,1.10,Wunderground v.1.15,2013-07-05 03:59:00,